Content
SEND FEEDBACK

Daily
Averages
Monthly
Summary
United States of America

AGAT, GUAM


Home > North America > United States > Guam
Elevation: 364 feet     Latitude: 13 33N     Longitude: 144 50E

WEATHER
 
SELECT A DAY
Number of Records: 208,997;   Date Range: 1/1/95 - 7/26/14
 
SHARE

PRINT THIS DATA

[ ← Previous Day ]
WEATHER ALMANAC - SEPTEMBER 21, 2013
[ Next Day → ]
[ °C ]   °F
Weather ElementAverageHighLow
Temperature79 °F80.6 °F (2:14 pm)75.2 °F (7:41 am)
Dewpoint77.1 °F78.8 °F (2:36 am)73.4 °F (7:41 am)
Humidity94 %100 % (1:54 am)84 % (6:40 pm)
Barometer29.59 in29.65 in (8:32 pm)29.49 in (2:54 am)
Wind Speed10.6 mph19.6 mph (8:46 am)
Wind Gust28.8 mph (8:46 am)
Weather ElementAverage
Visibility7.4 mi
Wind DirectionSW (220.9 °)

Weather ElementTotal
Precipitation2.72 in
Cooling Degree Days12.9 (Base 65)
Growing Degree Days27.9 (Base 50)
Averaged from 44 records on September 21, 2013
WEATHER CONDITIONS BREAKOUT
WIND DIRECTION BREAKOUT
WEATHER BY HOUR - SEPTEMBER 21, 2013
[ °C ]   °F
Local TimeTemperatureDewpointHumidityBarometerVisibilityWind DirectionWind SpeedGust SpeedPrecipitationEventsConditions
1:54 AM77.0 °F77.0 °F100 %29.51 in10.0 miCalm0.05 inRainLight Rain
2:17 AM78.8 °F77.0 °F94 %29.53 in10.0 miWSW (240°)6.9 mph0.00 inRainLight Rain
2:36 AM78.8 °F78.8 °F100 %29.52 in10.0 miSW (220°)6.9 mph0.01 inMostly Cloudy
2:54 AM79.0 °F78.1 °F97 %29.49 in10.0 miSW (230°)5.8 mph0.01 inMostly Cloudy
3:18 AM78.8 °F78.8 °F100 %29.52 in10.0 miWSW (240°)6.9 mphScattered Clouds
3:54 AM79.0 °F78.1 °F97 %29.51 in10.0 miWest (260°)9.2 mphMostly Cloudy
4:54 AM78.1 °F77.0 °F96 %29.53 in5.0 miWSW (240°)11.5 mph0.09 inRainRain
5:05 AM78.8 °F77.0 °F94 %29.55 in3.0 miSW (230°)13.8 mph18.4 mph0.04 inRainHeavy Rain
5:28 AM77.0 °F77.0 °F100 %29.55 in4.0 miWSW (250°)15.0 mph0.14 inRainHeavy Rain
5:35 AM77.0 °F75.2 °F94 %29.55 in4.0 miSW (230°)11.5 mph21.9 mph0.18 inRainHeavy Rain
5:54 AM75.9 °F75.0 °F97 %29.53 in5.0 miWSW (240°)6.9 mph0.22 inRainRain
6:54 AM77.0 °F77.0 °F100 %29.56 in5.0 miSW (220°)9.2 mph18.4 mph0.16 inRainRain
7:28 AM78.8 °F77.0 °F94 %29.59 in1.8 miWSW (240°)12.7 mph20.7 mph0.15 inRainHeavy Rain
7:41 AM75.2 °F73.4 °F94 %29.60 in2.5 miWSW (240°)12.7 mph21.9 mph0.28 inRainHeavy Rain
7:54 AM77.0 °F75.0 °F94 %29.59 in3.0 miWSW (240°)12.7 mph0.34 inRainHeavy Rain
8:42 AM78.8 °F77.0 °F94 %29.62 in2.5 miWSW (240°)16.1 mph23.0 mph0.16 inRainRain
8:46 AM78.8 °F75.2 °F89 %29.62 in3.0 miSW (230°)19.6 mph28.8 mph0.18 inRainRain
8:54 AM78.1 °F75.9 °F93 %29.60 in7.0 miSW (230°)16.1 mph28.8 mph0.19 inRainRain
9:14 AM78.8 °F77.0 °F94 %29.64 in6.0 miWSW (240°)13.8 mph24.2 mph0.03 inRainRain
9:26 AM78.8 °F77.0 °F94 %29.64 in4.0 miWSW (250°)15.0 mph0.06 inRainRain
9:34 AM78.8 °F77.0 °F94 %29.64 in3.0 miSW (230°)16.1 mph0.08 inRainHeavy Rain
9:54 AM78.1 °F77.0 °F96 %29.62 in4.0 miSW (220°)12.7 mph24.2 mph0.14 inRainRain
10:16 AM78.8 °F77.0 °F94 %29.64 in5.0 miSW (220°)16.1 mph21.9 mph0.05 inRainRain
10:54 AM79.0 °F78.1 °F97 %29.62 in9.0 miSW (220°)9.2 mph0.07 inRainLight Rain
11:54 AM79.0 °F78.1 °F97 %29.60 in5.0 miSW (220°)12.7 mph0.05 inRainRain
12:01 PM78.8 °F78.8 °F100 %29.61 in6.0 miSW (220°)12.7 mph20.7 mph0.01 inRainLight Rain
12:54 PM80.1 °F78.1 °F94 %29.58 in10.0 miWSW (250°)18.4 mph26.5 mph0.03 inRainLight Rain
1:54 PM80.1 °F78.1 °F94 %29.56 in10.0 miWSW (240°)13.8 mph24.2 mph0.00 inOvercast
2:14 PM80.6 °F78.8 °F94 %29.59 in10.0 miWSW (250°)18.4 mph25.3 mphOvercast
2:38 PM80.6 °F77.0 °F89 %29.59 in10.0 miWSW (240°)12.7 mph23.0 mph0.00 inRainLight Rain
2:54 PM80.1 °F77.0 °F90 %29.57 in10.0 miWSW (240°)12.7 mph0.00 inOvercast
3:54 PM80.1 °F77.0 °F90 %29.57 in10.0 miSW (230°)8.1 mph0.00 inMostly Cloudy
4:54 PM80.1 °F78.1 °F94 %29.58 in10.0 miSW (220°)9.2 mph0.00 inRainLight Rain
5:54 PM80.1 °F77.0 °F90 %29.59 in10.0 miSW (220°)9.2 mph0.00 inMostly Cloudy
6:40 PM80.6 °F75.2 °F84 %29.63 in10.0 miSSW (210°)5.8 mph20.7 mphMostly Cloudy
6:54 PM80.1 °F77.0 °F90 %29.62 in10.0 miSSW (200°)8.1 mphMostly Cloudy
7:54 PM80.1 °F77.0 °F90 %29.62 in9.0 miSSW (200°)8.1 mph0.00 inRainLight Rain
8:32 PM80.6 °F77.0 °F89 %29.65 in10.0 miSSW (200°)6.9 mph0.00 inScattered Clouds
8:54 PM80.1 °F77.0 °F90 %29.63 in10.0 miSSW (200°)4.6 mph0.00 inScattered Clouds
9:07 PM80.6 °F77.0 °F89 %29.65 in10.0 miSSW (200°)4.6 mph0.00 inRainLight Rain
9:24 PM80.6 °F78.8 °F94 %29.65 in10.0 miSSW (200°)6.9 mph0.00 inMostly Cloudy
9:54 PM80.1 °F78.1 °F94 %29.64 in10.0 miSSW (210°)5.8 mph0.00 inScattered Clouds
10:54 PM80.1 °F78.1 °F94 %29.63 in10.0 miSSW (200°)6.9 mphScattered Clouds
11:54 PM80.1 °F78.1 °F94 %29.62 in10.0 miSouth (170°)4.6 mph0.00 inScattered Clouds
Hourly data recorded from PGUM, located miles away from Agat, Guam







STORIES FROM OUR PARTNERS